Weather History for San Angelo, TX

Change the Weather History Date:

Wednesday, February 27, 2013

  Actual Average Record
Temperature  
Mean Temperature 48 °F 53 °F  
Max Temperature 60 °F 66 °F 92 °F (1917)
Min Temperature 36 °F 40 °F 10 °F (1924)
Degree Days  
Heating Degree Days 17 12  
Month to date heating degree days 334 404  
Since 1 July heating degree days 1581 1948  
Cooling Degree Days 0 0  
Month to date cooling degree days 0 0  
Year to date cooling degree days 12 1  
Moisture  
Dew Point 21 °F    
Average Humidity 42    
Maximum Humidity 70    
Minimum Humidity 13    
Precipitation  
Precipitation 0.00 in 0.06 in 0.70 in (1990)
Month to date precipitation 0.39 1.30  
Year to date precipitation 1.82 2.23  
Snow  
Snow 0.00 in 0.00 in 0.00 in (2011)
Month to date snowfall T 0.3  
Since 1 July snowfall 2.8 2.1  
Snow Depth 0.00 in    
Sea Level Pressure  
Sea Level Pressure 30.15 in    
Wind  
Wind Speed 13 mph (NW)    
Max Wind Speed 29 mph    
Max Gust Speed 35 mph    
Visibility 10 miles    
Events      
T = Trace of Precipitation, MM = Missing Value Source: NWS Daily Summary

Daily Weather History Graph

Daily Weather History Graph

Search for Another Location

Airport:

Trip Planner

Search our weather history database for the weather conditions in past years. The results will help you decide how hot, cold, wet, or windy it might be!

Date:

Astronomy

Feb. 27, 2013 Rise Set
Actual Time 7:10 AM CST 6:38 PM CST
Civil Twilight 6:46 AM CST 7:03 PM CST
Nautical Twilight 6:18 AM CST 7:31 PM CST
Astronomical Twilight 5:50 AM CST 7:59 PM CST
Moon 8:49 PM CST (2/27) 7:57 AM CST (2/27)
Length of Visible Light 12h 17m
Length of Day
11h 28m
Waning Gibbous, 96% of the Moon is Illuminated
Feb 27
Waning Gibbous
Mar 4
Last Quarter
Mar 11
New
Mar 19
First Quarter
Mar 27
Full

Hourly Weather History & Observations

Time (CST) Temp. Windchill Dew Point Humidity Pressure Visibility Wind Dir Wind Speed Gust Speed Precip Events Conditions
12:51 AM 53.1 °F - 12.9 °F 20% 29.84 in 10.0 mi WSW 17.3 mph 26.5 mph N/A   Clear
1:51 AM 48.9 °F - 24.1 °F 38% 29.90 in 10.0 mi WSW 13.8 mph - N/A   Clear
2:51 AM 46.0 °F 40.2 °F 27.0 °F 47% 29.93 in 10.0 mi West 12.7 mph - N/A   Clear
3:51 AM 43.0 °F 37.2 °F 27.0 °F 53% 29.96 in 10.0 mi West 10.4 mph - N/A   Clear
4:51 AM 41.0 °F 32.8 °F 28.9 °F 62% 30.01 in 10.0 mi NW 16.1 mph - N/A   Clear
5:51 AM 39.0 °F 30.3 °F 30.0 °F 70% 30.06 in 10.0 mi NNW 16.1 mph - N/A   Clear
6:51 AM 37.0 °F 29.3 °F 28.9 °F 73% 30.12 in 10.0 mi WNW 11.5 mph - N/A   Clear
7:51 AM 37.9 °F 30.5 °F 27.0 °F 65% 30.16 in 10.0 mi WNW 11.5 mph - N/A   Clear
8:51 AM 42.1 °F 36.1 °F 27.0 °F 55% 30.19 in 10.0 mi WNW 10.4 mph - N/A   Clear
9:51 AM 46.9 °F - 28.0 °F 48% 30.20 in 10.0 mi NNW 17.3 mph - N/A   Clear
10:51 AM 51.1 °F - 28.9 °F 43% 30.22 in 10.0 mi NNW 16.1 mph - N/A   Clear
11:51 AM 52.0 °F - 27.0 °F 38% 30.22 in 10.0 mi North 18.4 mph - N/A   Clear
12:51 PM 54.0 °F - 19.9 °F 26% 30.21 in 10.0 mi NNW 12.7 mph 24.2 mph N/A   Clear
1:51 PM 57.0 °F - 10.0 °F 15% 30.19 in 10.0 mi North 15.0 mph - N/A   Clear
2:51 PM 59.0 °F - 9.0 °F 14% 30.17 in 10.0 mi North 17.3 mph 25.3 mph N/A   Clear
3:51 PM 57.9 °F - 9.0 °F 14% 30.17 in 10.0 mi NNW 15.0 mph - N/A   Clear
4:51 PM 59.0 °F - 10.9 °F 15% 30.17 in 10.0 mi North 19.6 mph - N/A   Clear
5:51 PM 55.9 °F - 10.9 °F 17% 30.19 in 10.0 mi NNW 12.7 mph - N/A   Clear
6:51 PM 52.0 °F - 15.1 °F 23% 30.21 in 10.0 mi North 10.4 mph - N/A   Clear
7:51 PM 48.0 °F - 17.1 °F 29% 30.25 in 10.0 mi North 9.2 mph - N/A   Clear
8:51 PM 46.9 °F - 19.9 °F 34% 30.26 in 10.0 mi North 9.2 mph - N/A   Clear
9:51 PM 42.1 °F 39.2 °F 21.0 °F 43% 30.27 in 10.0 mi NNW 4.6 mph - N/A   Clear
10:51 PM 39.9 °F 36.7 °F 19.9 °F 45% 30.28 in 10.0 mi NW 4.6 mph - N/A   Clear
11:51 PM 37.0 °F - 19.9 °F 50% 30.29 in 10.0 mi Calm Calm - N/A   Clear